| time (UTC) | temp F | wind direction | speed MPH | gust MPH | rain 1hr in | rain 24hr in | rain mn in | humidity % | barometer mb |
| 20260503214004 | 68 | 239 | 5.0 | 9.0 | 0.00 | 0.00 | 0.00 | 40 | 1002.7 |
| 20260503213004 | 68 | 221 | 3.0 | 8.0 | 0.00 | 0.00 | 0.00 | 42 | 1002.8 |
| 20260503212504 | 68 | 232 | 4.0 | 8.0 | 0.00 | 0.00 | 0.00 | 43 | 1002.8 |
| 20260503212004 | 67 | 191 | 2.0 | 8.0 | 0.00 | 0.00 | 0.00 | 43 | 1002.9 |
| 20260503211004 | 68 | 237 | 4.0 | 8.0 | 0.00 | 0.00 | 0.00 | 43 | 1003.0 |
| 20260503210504 | 68 | 230 | 3.0 | 10.0 | 0.00 | 0.00 | 0.00 | 43 | 1003.1 |
| 20260503210004 | 67 | 233 | 1.0 | 6.0 | 0.00 | 0.00 | 0.00 | 44 | 1003.1 |
| 20260503205504 | 67 | 246 | 2.0 | 7.0 | 0.00 | 0.00 | 0.00 | 44 | 1003.2 |
| 20260503205004 | 67 | 245 | 3.0 | 8.0 | 0.00 | 0.00 | 0.00 | 43 | 1003.2 |
| 20260503204004 | 67 | 225 | 4.0 | 8.0 | 0.00 | 0.00 | 0.00 | 45 | 1003.5 |
| 20260503202504 | 67 | 238 | 3.0 | 9.0 | 0.00 | 0.00 | 0.00 | 46 | 1003.6 |
| 20260503202004 | 66 | 229 | 5.0 | 12.0 | 0.00 | 0.00 | 0.00 | 42 | 1003.7 |
| 20260503201504 | 66 | 262 | 2.0 | 12.0 | 0.00 | 0.00 | 0.00 | 45 | 1003.9 |
| 20260503195006 | 66 | 231 | 5.0 | 14.0 | 0.00 | 0.00 | 0.00 | 45 | 1004.1 |
| 20260503194004 | 66 | 216 | 3.0 | 9.0 | 0.00 | 0.00 | 0.00 | 42 | 1004.2 |
| 20260503193504 | 65 | 243 | 3.0 | 10.0 | 0.00 | 0.00 | 0.00 | 42 | 1004.4 |
| 20260503193005 | 66 | 224 | 5.0 | 12.0 | 0.00 | 0.00 | 0.00 | 44 | 1004.3 |
| 20260503192504 | 65 | 250 | 3.0 | 12.0 | 0.00 | 0.00 | 0.00 | 44 | 1004.4 |
| 20260503191505 | 65 | 244 | 3.0 | 16.0 | 0.00 | 0.00 | 0.00 | 45 | 1004.4 |
| 20260503184004 | 64 | 239 | 4.0 | 12.0 | 0.00 | 0.00 | 0.00 | 47 | 1004.6 |
| 20260503182005 | 63 | 222 | 4.0 | 12.0 | 0.00 | 0.00 | 0.00 | 49 | 1005.0 |
| 20260503175504 | 62 | 201 | 5.0 | 9.0 | 0.00 | 0.00 | 0.00 | 47 | 1005.3 |
| 20260503175005 | 62 | 190 | 2.0 | 8.0 | 0.00 | 0.00 | 0.00 | 52 | 1005.4 |
| 20260503172504 | 61 | 266 | 6.0 | 16.0 | 0.00 | 0.00 | 0.00 | 47 | 1005.6 |
| 20260503172005 | 62 | 220 | 5.0 | 12.0 | 0.00 | 0.00 | 0.00 | 47 | 1005.6 |
| 20260503171504 | 61 | 225 | 5.0 | 12.0 | 0.00 | 0.00 | 0.00 | 46 | 1005.7 |
| 20260503130504 | 52 | 202 | 3.0 | 10.0 | 0.00 | 0.00 | 0.00 | 62 | 1008.9 |
| 20260503080504 | 48 | 246 | 1.0 | 3.0 | 0.00 | 0.00 | 0.00 | 52 | 1010.4 |
| 20260503072503 | 48 | 229 | 1.0 | 3.0 | 0.00 | 0.00 | 0.00 | 53 | 1010.5 |
| 20260503071503 | 48 | 257 | 1.0 | 3.0 | 0.00 | 0.00 | 0.00 | 52 | 1010.7 |
| 20260503070504 | 48 | 234 | 1.0 | 3.0 | 0.00 | 0.00 | 0.00 | 51 | 1010.8 |
| 20260503055004 | 50 | 242 | 1.0 | 3.0 | 0.00 | 0.00 | 0.00 | 48 | 1011.2 |
| 20260503053503 | 50 | 244 | 2.0 | 3.0 | 0.00 | 0.00 | 0.00 | 48 | 1011.4 |
| 20260503053004 | 50 | 242 | 1.0 | 3.0 | 0.00 | 0.00 | 0.00 | 48 | 1011.4 |
| 20260503052004 | 50 | 234 | 0.0 | 3.0 | 0.00 | 0.00 | 0.00 | 48 | 1011.5 |
| 20260503050504 | 50 | 240 | 1.0 | 3.0 | 0.00 | 0.00 | 0.00 | 47 | 1011.6 |
| 20260503045503 | 50 | 256 | 1.0 | 3.0 | 0.00 | 0.00 | 0.00 | 47 | 1011.6 |
| 20260503044504 | 50 | 227 | 1.0 | 3.0 | 0.00 | 0.00 | 0.00 | 47 | 1011.7 |
| 20260503043504 | 50 | 216 | 0.0 | 2.0 | 0.00 | 0.00 | 0.00 | 47 | 1011.8 |
| 20260503042503 | 50 | 209 | 2.0 | 3.0 | 0.00 | 0.00 | 0.00 | 47 | 1011.9 |
| 20260503040004 | 49 | 246 | 0.0 | 3.0 | 0.00 | 0.00 | 0.00 | 50 | 1012.1 |
| 20260503034504 | 49 | 247 | 1.0 | 2.0 | 0.00 | 0.00 | 0.00 | 49 | 1012.2 |
| 20260503032504 | 49 | 246 | 0.0 | 2.0 | 0.00 | 0.00 | 0.00 | 49 | 1012.4 |
| 20260503031503 | 49 | 246 | 0.0 | 0.0 | 0.00 | 0.00 | 0.00 | 51 | 1012.4 |
| 20260503030503 | 49 | 246 | 0.0 | 0.0 | 0.00 | 0.00 | 0.00 | 51 | 1012.4 |
| 20260503025505 | 48 | 246 | 0.0 | 0.0 | 0.00 | 0.00 | 0.00 | 51 | 1012.5 |
| 20260503025005 | 48 | 246 | 0.0 | 0.0 | 0.00 | 0.00 | 0.00 | 51 | 1012.6 |
| 20260503024005 | 48 | 246 | 0.0 | 0.0 | 0.00 | 0.00 | 0.00 | 53 | 1012.6 |
| 20260503023505 | 48 | 246 | 0.0 | 0.0 | 0.00 | 0.00 | 0.00 | 52 | 1012.5 |
| 20260503023005 | 48 | 246 | 0.0 | 0.0 | 0.00 | 0.00 | 0.00 | 52 | 1012.6 |
| 20260503022505 | 48 | 246 | 0.0 | 0.0 | 0.00 | 0.00 | 0.00 | 54 | 1012.5 |
| 20260503022005 | 48 | 245 | 0.0 | 0.0 | 0.00 | 0.00 | 0.00 | 54 | 1012.5 |
| 20260503020005 | 49 | 245 | 0.0 | 0.0 | 0.00 | 0.00 | 0.00 | 51 | 1012.4 |
| 20260503015505 | 49 | 245 | 0.0 | 0.0 | 0.00 | 0.00 | 0.00 | 51 | 1012.4 |
| 20260503015005 | 49 | 245 | 0.0 | 0.0 | 0.00 | 0.00 | 0.00 | 50 | 1012.3 |
| 20260503011505 | 52 | 245 | 0.0 | 0.0 | 0.00 | 0.00 | 0.00 | 44 | 1012.2 |
| 20260503011005 | 52 | 245 | 0.0 | 0.0 | 0.00 | 0.00 | 0.00 | 44 | 1012.2 |
| 20260503010505 | 53 | 245 | 0.0 | 0.0 | 0.00 | 0.00 | 0.00 | 43 | 1012.2 |
| 20260503005005 | 54 | 245 | 1.0 | 3.0 | 0.00 | 0.00 | 0.00 | 41 | 1012.2 |
| 20260503004505 | 54 | 255 | 1.0 | 3.0 | 0.00 | 0.00 | 0.00 | 40 | 1012.2 |
| 20260503003005 | 55 | 255 | 0.0 | 3.0 | 0.00 | 0.00 | 0.00 | 38 | 1012.2 |
| 20260503002506 | 55 | 240 | 1.0 | 2.0 | 0.00 | 0.00 | 0.00 | 38 | 1012.3 |
| 20260503002005 | 56 | 240 | 2.0 | 7.0 | 0.00 | 0.00 | 0.00 | 38 | 1012.3 |
| 20260503001505 | 56 | 243 | 3.0 | 7.0 | 0.00 | 0.00 | 0.00 | 36 | 1012.3 |
| 20260503001005 | 56 | 245 | 1.0 | 3.0 | 0.00 | 0.00 | 0.00 | 37 | 1012.5 |
| 20260503000505 | 56 | 246 | 3.0 | 6.0 | 0.00 | 0.00 | 0.00 | 36 | 1012.5 |
| 20260503000004 | 56 | 241 | 4.0 | 10.0 | 0.00 | 0.00 | 0.00 | 34 | 1012.6 |
| 20260502235504 | 56 | 242 | 2.0 | 3.0 | 0.00 | 0.00 | 0.00 | 36 | 1012.6 |
| 20260502235005 | 56 | 243 | 3.0 | 9.0 | 0.00 | 0.00 | 0.00 | 36 | 1012.7 |
| 20260502234505 | 56 | 254 | 2.0 | 3.0 | 0.00 | 0.00 | 0.00 | 36 | 1012.7 |
| 20260502234005 | 56 | 281 | 2.0 | 6.0 | 0.00 | 0.00 | 0.00 | 35 | 1012.8 |
| 20260502233506 | 56 | 266 | 3.0 | 8.0 | 0.00 | 0.00 | 0.00 | 36 | 1012.8 |
| 20260502233006 | 56 | 243 | 3.0 | 8.0 | 0.00 | 0.00 | 0.00 | 35 | 1012.7 |
| 20260502232005 | 57 | 257 | 3.0 | 8.0 | 0.00 | 0.00 | 0.00 | 35 | 1012.8 |
| 20260502231005 | 57 | 286 | 3.0 | 8.0 | 0.00 | 0.00 | 0.00 | 35 | 1012.9 |
| 20260502230505 | 57 | 259 | 2.0 | 8.0 | 0.00 | 0.00 | 0.00 | 36 | 1013.0 |
| 20260502225505 | 57 | 253 | 3.0 | 5.0 | 0.00 | 0.00 | 0.00 | 36 | 1013.0 |
| 20260502225005 | 57 | 246 | 3.0 | 7.0 | 0.00 | 0.00 | 0.00 | 35 | 1013.1 |
| 20260502224005 | 57 | 236 | 3.0 | 8.0 | 0.00 | 0.00 | 0.00 | 37 | 1013.2 |
| 20260502223505 | 56 | 270 | 2.0 | 3.0 | 0.00 | 0.00 | 0.00 | 37 | 1013.1 |
| 20260502223005 | 57 | 245 | 3.0 | 5.0 | 0.00 | 0.00 | 0.00 | 35 | 1013.2 |
| 20260502222005 | 58 | 242 | 4.0 | 9.0 | 0.00 | 0.00 | 0.00 | 34 | 1013.3 |
| 20260502221504 | 57 | 276 | 2.0 | 5.0 | 0.00 | 0.00 | 0.00 | 35 | 1013.3 |
| 20260502220005 | 57 | 259 | 2.0 | 13.0 | 0.00 | 0.00 | 0.00 | 36 | 1013.4 |
| 20260502215505 | 58 | 242 | 3.0 | 8.0 | 0.00 | 0.00 | 0.00 | 36 | 1013.5 |